TimeEDT,TemperatureF,Dew PointF,Humidity,Sea Level PressureIn,VisibilityMPH,Wind Direction,Wind SpeedMPH,Gust SpeedMPH,PrecipitationIn,Events,Conditions,WindDirDegrees,DateUTC
12:07 AM,51.8,50.0,94,29.97,2.0,Calm,Calm,-,N/A,,Partly Cloudy,0,2013-06-19 04:07:00
12:10 AM,51.8,50.0,94,29.97,1.2,Calm,Calm,-,N/A,,Partly Cloudy,0,2013-06-19 04:10:00
12:18 AM,51.8,50.0,94,29.97,2.0,Calm,Calm,-,N/A,,Partly Cloudy,0,2013-06-19 04:18:00
12:34 AM,51.8,50.0,94,29.97,4.0,Calm,Calm,-,N/A,,Mostly Cloudy,0,2013-06-19 04:34:00
12:52 AM,51.1,50.0,96,29.97,10.0,Calm,Calm,-,N/A,,Mostly Cloudy,0,2013-06-19 04:52:00
1:37 AM,51.8,48.2,88,29.96,2.0,Calm,Calm,-,N/A,,Mostly Cloudy,0,2013-06-19 05:37:00
1:39 AM,51.8,48.2,88,29.96,1.2,Calm,Calm,-,N/A,,Mostly Cloudy,0,2013-06-19 05:39:00
1:42 AM,51.8,48.2,88,29.96,0.8,Calm,Calm,-,N/A,,Mist,0,2013-06-19 05:42:00
1:52 AM,51.1,50.0,96,29.97,0.2,Calm,Calm,-,N/A,Fog,Fog,0,2013-06-19 05:52:00
2:18 AM,51.8,50.0,94,29.96,0.2,Calm,Calm,-,N/A,Fog,Fog,0,2013-06-19 06:18:00
2:29 AM,51.8,50.0,94,29.96,0.5,Calm,Calm,-,N/A,Fog,Fog,0,2013-06-19 06:29:00
2:39 AM,50.0,50.0,100,29.96,0.2,Calm,Calm,-,N/A,Fog,Fog,0,2013-06-19 06:39:00
2:52 AM,50.0,48.9,96,29.97,0.2,Calm,Calm,-,N/A,Fog,Fog,0,2013-06-19 06:52:00
3:52 AM,50.0,48.9,96,29.99,0.2,Calm,Calm,-,0.01,Fog,Fog,0,2013-06-19 07:52:00
4:52 AM,50.0,48.0,93,30.00,0.2,Calm,Calm,-,N/A,Fog,Fog,0,2013-06-19 08:52:00
5:52 AM,50.0,48.9,96,30.01,0.2,Calm,Calm,-,N/A,Fog,Fog,0,2013-06-19 09:52:00
6:52 AM,50.0,48.9,96,30.02,0.8,Calm,Calm,-,N/A,,Overcast,0,2013-06-19 10:52:00
7:12 AM,51.8,48.2,88,30.02,1.2,Variable,5.8,-,N/A,,Overcast,0,2013-06-19 11:12:00
7:18 AM,51.8,48.2,88,30.03,2.0,Calm,Calm,-,N/A,,Overcast,0,2013-06-19 11:18:00
7:31 AM,51.8,50.0,94,30.03,5.0,Calm,Calm,-,N/A,,Mostly Cloudy,0,2013-06-19 11:31:00
7:43 AM,51.8,48.2,88,30.03,10.0,Calm,Calm,-,N/A,,Mostly Cloudy,0,2013-06-19 11:43:00
7:52 AM,53.1,50.0,89,30.04,10.0,Calm,Calm,-,N/A,,Unknown,0,2013-06-19 11:52:00
8:52 AM,57.9,46.0,65,30.05,10.0,Variable,3.5,-,N/A,,Clear,0,2013-06-19 12:52:00
9:52 AM,61.0,45.0,56,30.06,10.0,West,6.9,-,N/A,,Clear,280,2013-06-19 13:52:00
10:52 AM,64.0,43.0,46,30.06,10.0,Variable,6.9,-,N/A,,Clear,0,2013-06-19 14:52:00
11:52 AM,64.9,42.1,43,30.07,10.0,WNW,8.1,-,N/A,,Clear,290,2013-06-19 15:52:00
12:52 PM,66.0,37.9,36,30.08,10.0,Variable,6.9,-,N/A,,Clear,0,2013-06-19 16:52:00
1:52 PM,66.9,39.9,37,30.08,10.0,Variable,4.6,-,N/A,,Clear,0,2013-06-19 17:52:00
2:52 PM,68.0,39.0,35,30.09,10.0,Variable,5.8,-,N/A,,Clear,0,2013-06-19 18:52:00
3:52 PM,69.1,37.0,31,30.09,10.0,Variable,4.6,-,N/A,,Clear,0,2013-06-19 19:52:00
4:52 PM,69.1,35.1,29,30.09,10.0,West,5.8,-,N/A,,Clear,280,2013-06-19 20:52:00
5:52 PM,68.0,33.1,27,30.09,10.0,West,4.6,-,N/A,,Unknown,280,2013-06-19 21:52:00
6:52 PM,66.9,33.1,28,30.09,10.0,Calm,Calm,-,N/A,,Clear,0,2013-06-19 22:52:00
7:52 PM,62.1,41.0,46,30.11,10.0,Calm,Calm,-,N/A,,Clear,0,2013-06-19 23:52:00
8:52 PM,54.0,45.0,72,30.13,10.0,Calm,Calm,-,N/A,,Clear,0,2013-06-20 00:52:00
9:52 PM,51.1,43.0,74,30.17,10.0,Calm,Calm,-,N/A,,Clear,0,2013-06-20 01:52:00
10:52 PM,48.9,45.0,86,30.19,10.0,Calm,Calm,-,N/A,,Clear,0,2013-06-20 02:52:00
11:52 PM,46.9,44.1,90,30.20,10.0,Calm,Calm,-,N/A,,Clear,0,2013-06-20 03:52:00